Location: Conjunto Santa Maria
(19.9513°S, 43.9599°W)
Time: 08:46:49
(UTC+00:00)

Aurora 2 Rocket - Visible Passes

Search period start: 09 May 2021 00:00
Search period end: 19 May 2021 00:00
Orbit: 390 x 1738 km, 25.0° (Epoch: 08 May)

Date Brightness Start Highest point End Pass type
(mag) Time Alt. Az. Time Alt. Az. Time Alt. Az.
09 May 6.0 06:31:29 11° N 06:31:29 11° N 06:31:55 10° N visible
09 May 2.0 21:51:39 10° W 21:55:55 66° SSW 21:56:14 62° SSE visible
10 May 2.5 20:50:38 10° WNW 20:55:58 87° NNE 20:59:48 10° ESE visible
10 May 5.0 22:45:23 10° WSW 22:46:16 15° WSW 22:46:16 15° WSW visible
11 May 2.7 21:44:25 10° W 21:49:02 49° SSW 21:49:52 41° SSE visible
12 May 2.9 20:43:04 10° W 20:48:57 68° SSW 20:53:05 10° ESE visible
12 May 4.6 22:38:15 10° WSW 22:39:54 19° WSW 22:39:54 19° WSW visible
13 May 3.1 21:37:06 10° W 21:42:08 44° S 21:43:29 33° SE visible
14 May 4.2 22:30:57 10° WSW 22:33:31 26° SW 22:33:31 26° SW visible
15 May 3.3 21:29:40 10° WSW 21:35:14 45° S 21:37:08 28° SE visible
16 May 3.7 22:23:28 10° WSW 22:27:12 38° SW 22:27:12 38° SW visible
17 May 3.3 21:22:04 10° WSW 21:28:19 52° S 21:30:51 25° ESE visible
17 May 5.7 23:16:59 10° WSW 23:17:17 11° WSW 23:17:17 11° WSW visible
18 May 3.0 22:15:50 10° WSW 22:20:59 63° SW 22:20:59 63° SW visible
